• Join FlightAware (Why Join?)
  • Login
  • US Flag 
12:29AM EST


 

Airport Tracker/Info


-or-


 

Live Flight TrackerFlight Track Log ✈ ASQ5738 ✈ 08-May-2013 ✈ KALB - KIAD

Flight Track Log - Related Links

Times and Time Zones

All times are in EDT time to prevent confusion due to time zone crossing. See the ASQ5738 flight status page for this flight to view local times or setup timezone preferences in your user account.

Time Position Orientation Groundspeed Altitude Reporting Facility
EDT Latitude Longitude Course Direction KTS MPH feet Rate Location/Type
10:18AM 42.7256 -73.8053 198° South 150 173 1,100  Level Boston Center
10:19AM 42.7047 -73.8133 196° South 164 189 1,800 2,110 Climbing Boston Center
10:20AM 42.7122 -73.8869 278° West 241 277 4,300 2,288 Climbing Boston Center
10:21AM 42.5292 -74.0288 196° South  Level Estimated
10:21AM 42.7572 -73.9417 318° Northwest 266 306 6,300  Level Boston Center
10:22AM 42.4400 -73.9978 166° South  Level FlightAware Approximate
10:22AM 42.8125 -74.0194 314° West 279 321 8,300  Level Boston Center
10:23AM 42.3675 -74.0746 198° South  Level Estimated
10:23AM 42.8736 -74.1117 312° West 290 334 11,100  Level Boston Center
10:24AM 42.8889 -74.2197 281° West 300 345 12,700 1,450 Climbing Boston Center
10:25AM 42.8617 -74.3408 253° West 327 376 14,000 1,250 Climbing Boston Center
10:26AM 42.7878 -74.4008 211° Southwest 328 377 15,200 1,450 Climbing Boston Center
10:27AM 42.6906 -74.4767 210° Southwest 358 412 16,900 1,400 Climbing Boston Center
10:28AM 42.6089 -74.4994 192° South 363 418 18,000 950 Climbing Boston Center
10:29AM 42.5475 -74.4353 142° Southeast 326 375 18,800 950 Climbing Boston Center
10:30AM 42.4639 -74.3314 137° Southeast 330 380 19,900 950 Climbing Boston Center
10:31AM 42.4047 -74.2564 137° Southeast 343 395 20,700 1,100 Climbing Boston Center
10:32AM 42.3106 -74.1331 136° Southeast 363 418 22,100 1,100 Climbing Boston Center
10:33AM 42.2328 -74.0467 141° Southeast 363 418 22,900 733 Climbing Boston Center
10:35AM 42.0242 -74.0611 183° South 361 415 24,300 658 Climbing Boston Center
10:36AM 41.8569 -74.1381 199° South 379 436 25,300 600 Climbing New York Center
10:37AM 41.7514 -74.1881 199° South 390 449 25,900 350 Climbing New York Center
10:38AM 41.6481 -74.2356 199° South 395 455 26,000 50 Climbing New York Center
10:39AM 41.5531 -74.2833 201° Southwest 400 460 26,000  Level New York Center
10:40AM 41.4453 -74.3358 200° South 405 466 26,000  Level New York Center
10:41AM 41.3333 -74.3878 199° South 418 481 26,000  Level New York Center
10:42AM 41.2122 -74.4642 205° Southwest 431 496 26,000 -50 Level New York Center
10:43AM 41.1372 -74.5894 232° Southwest 431 496 25,900  Descending New York Center
10:44AM 41.0603 -74.7144 231° Southwest 431 496 26,000 50 Climbing New York Center
10:45AM 40.9894 -74.8422 234° Southwest 437 503 26,000  Level New York Center
10:46AM 40.9122 -74.9639 230° Southwest 437 503 26,000 -50 Level New York Center
10:47AM 40.8411 -75.0828 232° Southwest 430 495 25,900  Descending New York Center
10:48AM 40.7631 -75.1683 220° Southwest 382 440 26,000  Climbing New York Center
10:49AM 40.6769 -75.2450 214° Southwest 382 440 25,900 -712 Descending New York Center
10:50AM 40.6075 -75.3661 233° Southwest 393 452 24,600 -1,361 Descending New York Center
10:51AM 40.5397 -75.5036 237° Southwest 416 479 23,200 -1,438 Descending New York Center
10:52AM 40.4717 -75.6356 236° Southwest 441 507 21,700 -1,550 Descending New York Center
10:53AM 40.4036 -75.7669 236° Southwest 446 513 20,100 -843 Descending New York Center
10:54AM 40.3378 -75.8956 236° Southwest 445 512 20,000 -50 Descending New York Center
10:55AM 40.2656 -76.0181 232° Southwest 438 504 20,000 -153 Level New York Center
10:56AM 40.2017 -76.1411 236° Southwest 427 491 19,700 -661 Descending New York Center
10:57AM 40.1400 -76.2583 235° Southwest 412 474 18,700 -934 Descending New York Center
10:58AM 40.0894 -76.3631 238° Southwest 389 448 17,800 -850 Descending New York Center
10:59AM 40.0292 -76.4883 238° Southwest 383 441 17,000 -830 Descending New York Center
11:01AM 39.9333 -76.6833 237° Southwest 399 459 15,600 -741 Descending Potomac TRACON
11:02AM 39.8833 -76.8167 244° Southwest 406 467 15,000 -295 Descending Potomac TRACON
11:03AM 39.8167 -76.9333 233° Southwest 393 452 15,000 -298 Level Potomac TRACON
11:04AM 39.7667 -77.0333 237° Southwest 318 366 14,400 -1,050 Descending Potomac TRACON
11:05AM 39.7333 -77.1333 247° West 307 353 12,900 -1,421 Descending Potomac TRACON
11:06AM 39.6833 -77.2167 232° Southwest 298 343 11,700 -1,316 Descending Potomac TRACON
11:07AM 39.6500 -77.3000 243° Southwest 289 333 10,400 -850 Descending Potomac TRACON
11:08AM 39.6167 -77.3833 243° Southwest 260 299 10,000 -250 Descending Potomac TRACON
11:09AM 39.5833 -77.4500 237° Southwest 243 280 9,900 -600 Descending Potomac TRACON
11:10AM 39.5167 -77.4500 180° South 226 260 8,800 -1,211 Descending Potomac TRACON
11:11AM 39.4500 -77.4500 180° South 229 264 7,600 -1,263 Descending Potomac TRACON
11:12AM 39.4000 -77.4500 180° South 229 264 6,400 -800 Descending Potomac TRACON
11:13AM 39.3333 -77.4500 180° South 219 252 6,000 -200 Descending Potomac TRACON
11:14AM 39.2667 -77.4500 180° South 218 251 6,000 -417 Level Potomac TRACON
11:15AM 39.2167 -77.4500 180° South 220 253 5,200 -991 Descending Potomac TRACON
11:16AM 39.1500 -77.4500 180° South 199 229 4,100 -1,100 Descending Potomac TRACON